• In Uzbekistan
  • List of Countries
  • For 7 days
  • Water Temperature
  • Satellite Maps
  • Weather Map
  • Weather Widgets
  • user-avatar
    Login

    Hourly Weather Tappita

    Today, 20 January, Sunday

    Time Temperature Precipitation Wind Pressure Humidity
    00:00 +22°C° 0.7 mm 0 mps 738 mmHg 98%
    01:00 +22°C° 0.7 mm 0 mps 738 mmHg 98%
    02:00 +22°C° 0.7 mm 0 mps 738 mmHg 99%
    03:00 +22°C° 0 mm 0 mps 738 mmHg 99%
    04:00 +22°C° 0 mm 0 mps 738 mmHg 99%
    05:00 +22°C° 0 mm 0 mps 738 mmHg 99%
    06:00 +23°C° 0 mm 0 mps 739 mmHg 93%
    07:00 +26°C° 0 mm 1 mps 739 mmHg 88%
    08:00 +27°C° 0 mm 1 mps 739 mmHg 82%
    09:00 +30°C° 0 mm 1 mps 739 mmHg 66%
    10:00 +33°C° 0 mm 1 mps 739 mmHg 50%
    11:00 +36°C° 0 mm 1 mps 739 mmHg 34%
    12:00 +37°C° 0 mm 1 mps 739 mmHg 31%
    13:00 +36°C° 0 mm 0 mps 738 mmHg 28%
    14:00 +38°C° 0 mm 0 mps 737 mmHg 24%
    15:00 +39°C° 0 mm 1 mps 737 mmHg 29%
    16:00 +36°C° 0 mm 1 mps 737 mmHg 33%
    17:00 +34°C° 0 mm 1 mps 737 mmHg 38%
    18:00 +31°C° 0.4 mm 1 mps 738 mmHg 56%
    19:00 +29°C° 0.4 mm 2 mps 738 mmHg 74%
    20:00 +26°C° 0.4 mm 2 mps 739 mmHg 91%
    21:00 +26°C° 0.1 mm 1 mps 739 mmHg 93%
    22:00 +25°C° 0.1 mm 1 mps 739 mmHg 94%
    23:00 +25°C° 0.1 mm 1 mps 740 mmHg 96%

    Tomorrow, 21 January, Monday

    Time Temperature Precipitation Wind Pressure Humidity
    00:00 +25°C° 0 mm 1 mps 739 mmHg 95%
    01:00 +25°C° 0 mm 1 mps 739 mmHg 95%
    02:00 +23°C° 0 mm 0 mps 739 mmHg 94%
    03:00 +23°C° 0 mm 0 mps 739 mmHg 95%
    04:00 +23°C° 0 mm 0 mps 739 mmHg 95%
    05:00 +22°C° 0 mm 0 mps 739 mmHg 96%
    06:00 +25°C° 0 mm 1 mps 739 mmHg 91%
    07:00 +26°C° 0 mm 1 mps 740 mmHg 86%
    08:00 +27°C° 0 mm 1 mps 740 mmHg 81%
    09:00 +30°C° 0 mm 1 mps 740 mmHg 70%
    10:00 +32°C° 0 mm 1 mps 740 mmHg 58%
    11:00 +35°C° 0 mm 1 mps 739 mmHg 46%
    12:00 +36°C° 0 mm 1 mps 739 mmHg 41%
    13:00 +37°C° 0 mm 1 mps 738 mmHg 36%
    14:00 +39°C° 0 mm 1 mps 737 mmHg 30%
    15:00 +36°C° 0 mm 1 mps 737 mmHg 36%
    16:00 +34°C° 0 mm 1 mps 737 mmHg 42%
    17:00 +33°C° 0 mm 1 mps 736 mmHg 48%
    18:00 +31°C° 0 mm 1 mps 737 mmHg 57%
    19:00 +29°C° 0 mm 1 mps 737 mmHg 67%
    20:00 +28°C° 0 mm 1 mps 738 mmHg 76%
    21:00 +27°C° 0 mm 1 mps 738 mmHg 81%
    22:00 +26°C° 0 mm 1 mps 738 mmHg 85%
    23:00 +26°C° 0 mm 1 mps 739 mmHg 90%

    Day after tomorrow, 22 January, Tuesday

    Time Temperature Precipitation Wind Pressure Humidity
    00:00 +25°C° 0 mm 1 mps 738 mmHg 92%
    01:00 +25°C° 0 mm 1 mps 738 mmHg 95%
    02:00 +24°C° 0 mm 1 mps 737 mmHg 97%
    03:00 +24°C° 0.1 mm 1 mps 737 mmHg 98%
    04:00 +24°C° 0.1 mm 1 mps 737 mmHg 98%
    05:00 +24°C° 0.1 mm 1 mps 738 mmHg 99%
    06:00 +25°C° 0 mm 1 mps 738 mmHg 93%
    07:00 +26°C° 0 mm 1 mps 739 mmHg 87%
    08:00 +28°C° 0 mm 1 mps 739 mmHg 81%
    09:00 +30°C° 0 mm 1 mps 739 mmHg 69%
    10:00 +33°C° 0 mm 1 mps 739 mmHg 57%
    11:00 +35°C° 0 mm 1 mps 739 mmHg 45%
    12:00 +35°C° 0 mm 1 mps 738 mmHg 44%
    13:00 +35°C° 0 mm 1 mps 737 mmHg 43%
    14:00 +35°C° 0 mm 1 mps 736 mmHg 41%
    15:00 +35°C° 0 mm 2 mps 736 mmHg 45%
    16:00 +35°C° 0 mm 2 mps 736 mmHg 49%
    17:00 +34°C° 0 mm 2 mps 736 mmHg 52%
    18:00 +31°C° 0 mm 2 mps 736 mmHg 62%
    19:00 +29°C° 0 mm 2 mps 737 mmHg 72%
    20:00 +27°C° 0 mm 2 mps 738 mmHg 82%
    21:00 +26°C° 0 mm 1 mps 738 mmHg 86%
    22:00 +26°C° 0 mm 1 mps 738 mmHg 90%
    23:00 +25°C° 0 mm 1 mps 738 mmHg 94%

    23 January, Wednesday

    Time Temperature Precipitation Wind Pressure Humidity
    00:00 +25°C° 0 mm 1 mps 738 mmHg 96%
    01:00 +22°C° 0 mm 0 mps 737 mmHg 97%
    02:00 +22°C° 0 mm 0 mps 737 mmHg 99%
    03:00 +22°C° 0 mm 0 mps 737 mmHg 98%
    04:00 +22°C° 0 mm 0 mps 737 mmHg 98%
    05:00 +22°C° 0 mm 0 mps 737 mmHg 98%
    06:00 +23°C° 0 mm 0 mps 738 mmHg 91%
    07:00 +27°C° 0 mm 1 mps 738 mmHg 83%
    08:00 +28°C° 0 mm 1 mps 739 mmHg 75%
    09:00 +29°C° 0 mm 1 mps 739 mmHg 69%
    10:00 +30°C° 0 mm 1 mps 738 mmHg 64%
    11:00 +31°C° 0 mm 1 mps 738 mmHg 58%
    12:00 +33°C° 0 mm 1 mps 737 mmHg 50%
    13:00 +35°C° 0 mm 1 mps 737 mmHg 42%
    14:00 +37°C° 0 mm 1 mps 736 mmHg 33%
    15:00 +36°C° 0 mm 1 mps 736 mmHg 37%
    16:00 +35°C° 0 mm 1 mps 736 mmHg 40%
    17:00 +35°C° 0 mm 2 mps 736 mmHg 43%
    18:00 +32°C° 0 mm 2 mps 736 mmHg 56%
    19:00 +29°C° 0 mm 2 mps 737 mmHg 69%
    20:00 +27°C° 0 mm 2 mps 737 mmHg 83%
    21:00 +26°C° 0 mm 2 mps 737 mmHg 87%
    22:00 +26°C° 0 mm 1 mps 737 mmHg 90%
    23:00 +25°C° 0 mm 1 mps 737 mmHg 94%

    24 January, Thursday

    Time Temperature Precipitation Wind Pressure Humidity
    00:00 +25°C° 0.1 mm 1 mps 737 mmHg 95%
    01:00 +25°C° 0.1 mm 1 mps 737 mmHg 96%
    02:00 +25°C° 0.1 mm 1 mps 736 mmHg 97%
    03:00 +25°C° 0 mm 1 mps 736 mmHg 97%
    04:00 +22°C° 0 mm 0 mps 736 mmHg 98%
    05:00 +22°C° 0 mm 0 mps 736 mmHg 98%
    06:00 +24°C° 0.2 mm 0 mps 737 mmHg 92%
    07:00 +27°C° 0.2 mm 1 mps 737 mmHg 85%
    08:00 +28°C° 0.2 mm 1 mps 738 mmHg 78%
    09:00 +31°C° 0.1 mm 1 mps 738 mmHg 66%
    10:00 +33°C° 0.1 mm 1 mps 738 mmHg 54%
    11:00 +35°C° 0.1 mm 1 mps 738 mmHg 42%
    12:00 +36°C° 0 mm 1 mps 737 mmHg 39%
    13:00 +37°C° 0 mm 1 mps 736 mmHg 35%
    14:00 +39°C° 0 mm 1 mps 735 mmHg 31%
    15:00 +36°C° 0 mm 1 mps 735 mmHg 37%
    16:00 +36°C° 0 mm 2 mps 735 mmHg 43%
    17:00 +34°C° 0 mm 2 mps 735 mmHg 49%
    18:00 +31°C° 0.1 mm 2 mps 735 mmHg 61%
    19:00 +29°C° 0.1 mm 2 mps 736 mmHg 73%
    20:00 +27°C° 0.1 mm 2 mps 737 mmHg 85%
    21:00 +26°C° 0 mm 2 mps 737 mmHg 88%
    22:00 +26°C° 0 mm 1 mps 737 mmHg 91%
    23:00 +25°C° 0 mm 1 mps 737 mmHg 94%

    25 January, Friday

    Time Temperature Precipitation Wind Pressure Humidity
    00:00 +25°C° 0.1 mm 1 mps 737 mmHg 94%
    01:00 +23°C° 0.1 mm 0 mps 737 mmHg 94%
    02:00 +24°C° 0.1 mm 0 mps 736 mmHg 94%
    03:00 +23°C° 0.2 mm 0 mps 736 mmHg 94%
    04:00 +23°C° 0.2 mm 0 mps 737 mmHg 95%
    05:00 +23°C° 0.2 mm 0 mps 737 mmHg 95%
    06:00 +26°C° 0 mm 1 mps 737 mmHg 91%
    07:00 +27°C° 0 mm 1 mps 738 mmHg 87%
    08:00 +28°C° 0 mm 1 mps 738 mmHg 82%
    09:00 +31°C° 0 mm 1 mps 738 mmHg 69%
    10:00 +33°C° 0 mm 1 mps 738 mmHg 56%
    11:00 +36°C° 0 mm 1 mps 737 mmHg 42%
    12:00 +37°C° 0 mm 1 mps 737 mmHg 39%
    13:00 +37°C° 0 mm 1 mps 736 mmHg 36%
    14:00 +39°C° 0 mm 1 mps 735 mmHg 33%
    15:00 +35°C° 0.1 mm 1 mps 735 mmHg 44%
    16:00 +34°C° 0.1 mm 2 mps 735 mmHg 55%
    17:00 +30°C° 0.1 mm 2 mps 735 mmHg 66%
    18:00 +29°C° 0.3 mm 2 mps 736 mmHg 73%
    19:00 +27°C° 0.3 mm 2 mps 737 mmHg 80%
    20:00 +26°C° 0.3 mm 2 mps 737 mmHg 87%
    21:00 +26°C° 0 mm 1 mps 738 mmHg 90%
    22:00 +25°C° 0 mm 1 mps 738 mmHg 93%
    23:00 +25°C° 0 mm 1 mps 738 mmHg 96%
    Show more